Jump to content

dryslot

Members
  • Posts

    49,412
  • Joined

  • Last visited

Posts posted by dryslot

  1. Couple 30's in there up in the county.

    000
    ASUS41 KGYX 201005
    RWRGYX
    WEATHER ROUNDUP FOR MAINE AND NEW HAMPSHIRE
    NATIONAL WEATHER SERVICE GRAY ME
    600 AM EDT MON SEP 20 2021
    
    MEZ002-005-006-010-012-015-018-020-021-024-026-027-029-201100-
    MAINE
    
    CITY           SKY/WX    TMP DP  RH WIND       PRES   REMARKS
    PORTLAND       PTCLDY    48  47  96 NW3       30.33R
    SANFORD        CLEAR     43  42  97 CALM      30.33R
    BAR HARBOR     CLEAR     45  44  97 CALM      30.33R
    WISCASSET      CLEAR     45  44  97 CALM      30.34R
    ROCKLAND       CLEAR     46  46 100 CALM      30.33R
    FRYEBURG       MOCLDY    41  40  96 CALM      30.34R
    LEWISTONAUBURN CLEAR     44  44 100 CALM      30.35R
    AUGUSTA        CLEAR     48  46  93 N3        30.34R
    WATERVILLE     CLEAR     45  45 100 CALM      30.32R
    BANGOR         PTCLDY    45  43  93 CALM      30.33R
    GREENVILLE       N/A     46  42  86 NE3       30.30R
    MILLINOCKET    CLEAR     41  39  93 CALM      30.34R
    HOULTON        CLEAR     38  36  92 CALM      30.31R
    PRESQUE ISLE   PTCLDY    36  36 100 CALM      30.33R FOG
    FRENCHVILLE    CLEAR     40  37  89 NW5       30.30R
    CARIBOU        CLEAR     40  36  86 CALM      30.31R
    $$
  2. 10 minutes ago, ORH_wxman said:

    Gotta shake the stigma. Most of your huge years have blocking. There's a few exceptions like 2007-2008.

     

    After last winter, I don't know how much worse it could be unless we go snow less.

    • Like 1
×
×
  • Create New...